Year,Month,Day,Hour,Minute,Value (Times are PST for temperature in C)
2015,07,13,00,00,15.70
2015,07,13,00,05,15.70
2015,07,13,00,06,15.60
2015,07,13,00,07,15.60
2015,07,13,00,08,15.50
2015,07,13,00,09,15.50
2015,07,13,00,10,15.60
2015,07,13,00,11,15.60
2015,07,13,00,12,15.70
2015,07,13,00,13,15.70
2015,07,13,00,14,15.80
2015,07,13,00,15,15.90
2015,07,13,00,16,16.00
2015,07,13,00,17,16.10
2015,07,13,00,18,16.20
2015,07,13,00,19,16.30
2015,07,13,00,20,16.40
2015,07,13,00,21,16.50
2015,07,13,00,22,16.60
2015,07,13,00,23,16.70
2015,07,13,00,24,16.80
2015,07,13,00,25,16.90
2015,07,13,00,26,17.00
2015,07,13,00,27,17.10
2015,07,13,00,28,17.20
2015,07,13,00,29,17.30
2015,07,13,00,30,17.30
2015,07,13,00,31,17.30
2015,07,13,00,32,17.40
2015,07,13,00,33,17.40
2015,07,13,00,34,17.40
2015,07,13,00,35,17.40
2015,07,13,00,36,17.40
2015,07,13,00,37,17.30
2015,07,13,00,38,17.20
2015,07,13,00,39,17.10
2015,07,13,00,40,17.10
2015,07,13,00,41,16.90
2015,07,13,00,42,16.80
2015,07,13,00,43,16.60
2015,07,13,00,44,16.40
2015,07,13,00,45,16.30
2015,07,13,00,46,16.10
2015,07,13,00,47,15.90
2015,07,13,00,48,15.80
2015,07,13,00,49,15.70
2015,07,13,00,50,15.60
2015,07,13,00,51,15.50
2015,07,13,00,52,15.50
2015,07,13,00,53,15.40
2015,07,13,00,54,15.30
2015,07,13,00,55,15.30
2015,07,13,00,56,15.30
2015,07,13,00,57,15.20
2015,07,13,00,58,15.20
2015,07,13,00,59,15.20
2015,07,13,01,00,15.10
2015,07,13,01,01,15.10
2015,07,13,01,02,15.10
2015,07,13,01,03,15.00
2015,07,13,01,04,15.00
2015,07,13,01,05,14.90
2015,07,13,01,06,14.90
2015,07,13,01,07,14.90
2015,07,13,01,08,14.90
2015,07,13,01,09,14.80
2015,07,13,01,10,14.80
2015,07,13,01,11,14.80
2015,07,13,01,12,14.80
2015,07,13,01,13,14.80
2015,07,13,01,14,14.70
2015,07,13,01,15,14.70
2015,07,13,01,16,14.70
2015,07,13,01,17,14.70
2015,07,13,01,18,14.60
2015,07,13,01,19,14.60
2015,07,13,01,20,14.60
2015,07,13,01,21,14.60
2015,07,13,01,22,14.60
2015,07,13,01,23,14.60
2015,07,13,01,24,14.60
2015,07,13,01,25,14.60
2015,07,13,01,26,14.60
2015,07,13,01,27,14.60
2015,07,13,01,28,14.60
2015,07,13,01,29,14.50
2015,07,13,01,30,14.50
2015,07,13,01,31,14.50
2015,07,13,01,32,14.50
2015,07,13,01,33,14.50
2015,07,13,01,34,14.40
2015,07,13,01,35,14.40
2015,07,13,01,36,14.40
2015,07,13,01,37,14.40
2015,07,13,01,38,14.40
2015,07,13,01,39,14.40
2015,07,13,01,40,14.40
2015,07,13,01,41,14.30
2015,07,13,01,42,14.30
2015,07,13,01,43,14.30
2015,07,13,01,44,14.30
2015,07,13,01,45,14.20
2015,07,13,01,46,14.20
2015,07,13,01,47,14.10
2015,07,13,01,48,14.10
2015,07,13,01,49,14.10
2015,07,13,01,50,14.00
2015,07,13,01,51,14.00
2015,07,13,01,52,14.00
2015,07,13,01,53,13.90
2015,07,13,01,54,13.90
2015,07,13,01,55,13.90
2015,07,13,01,56,13.90
2015,07,13,01,57,13.90
2015,07,13,01,58,13.80
2015,07,13,01,59,13.80
2015,07,13,02,00,13.80
2015,07,13,02,01,13.80
2015,07,13,02,02,13.80
2015,07,13,02,03,13.80
2015,07,13,02,04,13.80
2015,07,13,02,05,13.80
2015,07,13,02,06,13.70
2015,07,13,02,07,13.70
2015,07,13,02,08,13.70
2015,07,13,02,09,13.70
2015,07,13,02,10,13.70
2015,07,13,02,11,13.60
2015,07,13,02,12,13.60
2015,07,13,02,13,13.60
2015,07,13,02,14,13.60
2015,07,13,02,15,13.60
2015,07,13,02,16,13.60
2015,07,13,02,17,13.50
2015,07,13,02,18,13.50
2015,07,13,02,19,13.50
2015,07,13,02,20,13.50
2015,07,13,02,21,13.50
2015,07,13,02,22,13.50
2015,07,13,02,23,13.40
2015,07,13,02,24,13.40
2015,07,13,02,25,13.40
2015,07,13,02,26,13.40
2015,07,13,02,27,13.40
2015,07,13,02,28,13.40
2015,07,13,02,29,13.40
2015,07,13,02,30,13.40
2015,07,13,02,31,13.40
2015,07,13,02,32,13.30
2015,07,13,02,33,13.40
2015,07,13,02,34,13.40
2015,07,13,02,35,13.40
2015,07,13,02,36,13.40
2015,07,13,02,37,13.30
2015,07,13,02,38,13.30
2015,07,13,02,39,13.30
2015,07,13,02,40,13.30
2015,07,13,02,41,13.30
2015,07,13,02,42,13.30
2015,07,13,02,43,13.30
2015,07,13,02,44,13.30
2015,07,13,02,45,13.30
2015,07,13,02,46,13.20
2015,07,13,02,47,13.20
2015,07,13,02,48,13.20
2015,07,13,02,49,13.20
2015,07,13,02,50,13.20
2015,07,13,02,51,13.20
2015,07,13,02,52,13.20
2015,07,13,02,53,13.20
2015,07,13,02,54,13.10
2015,07,13,02,55,13.10
2015,07,13,02,56,13.10
2015,07,13,02,57,13.10
2015,07,13,02,58,13.10
2015,07,13,02,59,13.10
2015,07,13,03,00,13.10
2015,07,13,03,01,13.10
2015,07,13,03,02,13.10
2015,07,13,03,03,13.10
2015,07,13,03,04,13.00
2015,07,13,03,05,13.00
2015,07,13,03,06,13.00
2015,07,13,03,07,13.00
2015,07,13,03,08,13.00
2015,07,13,03,09,13.00
2015,07,13,03,10,13.00
2015,07,13,03,11,13.00
2015,07,13,03,12,13.00
2015,07,13,03,13,13.00
2015,07,13,03,14,13.00
2015,07,13,03,15,13.00
2015,07,13,03,16,12.90
2015,07,13,03,17,12.90
2015,07,13,03,18,12.90
2015,07,13,03,19,12.90
2015,07,13,03,20,12.90
2015,07,13,03,21,12.90
2015,07,13,03,22,12.90
2015,07,13,03,23,12.80
2015,07,13,03,24,12.80
2015,07,13,03,25,12.80
2015,07,13,03,26,12.80
2015,07,13,03,27,12.80
2015,07,13,03,28,12.80
2015,07,13,03,29,12.80
2015,07,13,03,30,12.80
2015,07,13,03,31,12.80
2015,07,13,03,32,12.80
2015,07,13,03,33,12.80
2015,07,13,03,34,12.80
2015,07,13,03,35,12.80
2015,07,13,03,36,12.80
2015,07,13,03,37,12.70
2015,07,13,03,38,12.70
2015,07,13,03,39,12.70
2015,07,13,03,40,12.70
2015,07,13,03,41,12.70
2015,07,13,03,42,12.70
2015,07,13,03,43,12.70
2015,07,13,03,44,12.70
2015,07,13,03,45,12.70
2015,07,13,03,46,12.70
2015,07,13,03,47,12.60
2015,07,13,03,48,12.60
2015,07,13,03,49,12.60
2015,07,13,03,50,12.60
2015,07,13,03,51,12.60
2015,07,13,03,52,12.60
2015,07,13,03,53,12.60
2015,07,13,03,54,12.60
2015,07,13,03,55,12.60
2015,07,13,03,56,12.60
2015,07,13,03,57,12.60
2015,07,13,03,58,12.60
2015,07,13,03,59,12.60
2015,07,13,04,00,12.60
2015,07,13,04,01,12.60
2015,07,13,04,02,12.60
2015,07,13,04,03,12.60
2015,07,13,04,04,12.60
2015,07,13,04,05,12.60
2015,07,13,04,06,12.60
2015,07,13,04,07,12.60
2015,07,13,04,08,12.60
2015,07,13,04,09,12.50
2015,07,13,04,10,12.50
2015,07,13,04,11,12.50
2015,07,13,04,12,12.50
2015,07,13,04,13,12.50
2015,07,13,04,14,12.50
2015,07,13,04,15,12.50
2015,07,13,04,16,12.50
2015,07,13,04,17,12.50
2015,07,13,04,18,12.50
2015,07,13,04,19,12.40
2015,07,13,04,20,12.40
2015,07,13,04,21,12.40
2015,07,13,04,22,12.50
2015,07,13,04,23,12.50
2015,07,13,04,24,12.50
2015,07,13,04,25,12.40
2015,07,13,04,26,12.40
2015,07,13,04,27,12.40
2015,07,13,04,28,12.40
2015,07,13,04,29,12.40
2015,07,13,04,30,12.40
2015,07,13,04,31,12.40
2015,07,13,04,32,12.40
2015,07,13,04,33,12.40
2015,07,13,04,34,12.40
2015,07,13,04,35,12.40
2015,07,13,04,36,12.40
2015,07,13,04,37,12.40
2015,07,13,04,38,12.40
2015,07,13,04,39,12.40
2015,07,13,04,40,12.40
2015,07,13,04,41,12.40
2015,07,13,04,42,12.40
2015,07,13,04,43,12.40
2015,07,13,04,44,12.40
2015,07,13,04,45,12.40
2015,07,13,04,46,12.40
2015,07,13,04,47,12.40
2015,07,13,04,48,12.40
2015,07,13,04,49,12.40
2015,07,13,04,50,12.40
2015,07,13,04,51,12.40
2015,07,13,04,52,12.40
2015,07,13,04,53,12.40
2015,07,13,04,54,12.40
2015,07,13,04,55,12.40
2015,07,13,04,56,12.40
2015,07,13,04,57,12.40
2015,07,13,04,58,12.40
2015,07,13,04,59,12.40
2015,07,13,05,00,12.40
2015,07,13,05,01,12.40
2015,07,13,05,02,12.40
2015,07,13,05,03,12.30
2015,07,13,05,04,12.30
2015,07,13,05,05,12.30
2015,07,13,05,06,12.30
2015,07,13,05,07,12.30
2015,07,13,05,08,12.30
2015,07,13,05,09,12.30
2015,07,13,05,10,12.30
2015,07,13,05,11,12.30
2015,07,13,05,12,12.30
2015,07,13,05,13,12.30
2015,07,13,05,14,12.30
2015,07,13,05,15,12.30
2015,07,13,05,16,12.30
2015,07,13,05,17,12.30
2015,07,13,05,18,12.20
2015,07,13,05,19,12.20
2015,07,13,05,20,12.20
2015,07,13,05,21,12.20
2015,07,13,05,22,12.20
2015,07,13,05,23,12.20
2015,07,13,05,24,12.20
2015,07,13,05,25,12.20
2015,07,13,05,26,12.20
2015,07,13,05,27,12.20
2015,07,13,05,28,12.20
2015,07,13,05,29,12.20
2015,07,13,05,30,12.30
2015,07,13,05,31,12.30
2015,07,13,05,32,12.30
2015,07,13,05,33,12.30
2015,07,13,05,34,12.30
2015,07,13,05,35,12.30
2015,07,13,05,36,12.30
2015,07,13,05,37,12.40
2015,07,13,05,38,12.40
2015,07,13,05,39,12.40
2015,07,13,05,40,12.40
2015,07,13,05,41,12.30
2015,07,13,05,42,12.30
2015,07,13,05,43,12.30
2015,07,13,05,44,12.30
2015,07,13,05,45,12.30
2015,07,13,05,46,12.30
2015,07,13,05,47,12.30
2015,07,13,05,48,12.30
2015,07,13,05,49,12.40
2015,07,13,05,50,12.40
2015,07,13,05,51,12.40
2015,07,13,05,52,12.40
2015,07,13,05,53,12.40
2015,07,13,05,54,12.40
2015,07,13,05,55,12.50
2015,07,13,05,56,12.50
2015,07,13,05,57,12.50
2015,07,13,05,58,12.60
2015,07,13,05,59,12.60
2015,07,13,06,00,12.60
2015,07,13,06,01,12.60
2015,07,13,06,02,12.70
2015,07,13,06,03,12.70
2015,07,13,06,04,12.70
2015,07,13,06,05,12.70
2015,07,13,06,06,12.70
2015,07,13,06,07,12.70
2015,07,13,06,08,12.70
2015,07,13,06,09,12.70
2015,07,13,06,10,12.70
2015,07,13,06,11,12.70
2015,07,13,06,12,12.70
2015,07,13,06,13,12.70
2015,07,13,06,14,12.70
2015,07,13,06,15,12.60
2015,07,13,06,16,12.60
2015,07,13,06,17,12.60
2015,07,13,06,18,12.60
2015,07,13,06,19,12.60
2015,07,13,06,20,12.60
2015,07,13,06,21,12.60
2015,07,13,06,22,12.60
2015,07,13,06,23,12.60
2015,07,13,06,24,12.60
2015,07,13,06,25,12.60
2015,07,13,06,26,12.60
2015,07,13,06,27,12.60
2015,07,13,06,28,12.60
2015,07,13,06,29,12.70
2015,07,13,06,30,12.70
2015,07,13,06,31,12.70
2015,07,13,06,32,12.70
2015,07,13,06,33,12.70
2015,07,13,06,34,12.70
2015,07,13,06,35,12.70
2015,07,13,06,36,12.70
2015,07,13,06,37,12.70
2015,07,13,06,38,12.80
2015,07,13,06,39,12.80
2015,07,13,06,40,12.80
2015,07,13,06,41,12.80
2015,07,13,06,42,12.80
2015,07,13,06,43,12.80
2015,07,13,06,44,12.80
2015,07,13,06,45,12.80
2015,07,13,06,46,12.80
2015,07,13,06,47,12.90
2015,07,13,06,48,12.90
2015,07,13,06,49,12.90
2015,07,13,06,50,13.00
2015,07,13,06,51,13.00
2015,07,13,06,52,13.10
2015,07,13,06,53,13.10
2015,07,13,06,54,13.20
2015,07,13,06,55,13.20
2015,07,13,06,56,13.30
2015,07,13,06,57,13.30
2015,07,13,06,58,13.30
2015,07,13,06,59,13.30
2015,07,13,07,00,13.30
2015,07,13,07,01,13.30
2015,07,13,07,02,13.30
2015,07,13,07,03,13.30
2015,07,13,07,04,13.30
2015,07,13,07,05,13.30
2015,07,13,07,06,13.40
2015,07,13,07,07,13.40
2015,07,13,07,08,13.40
2015,07,13,07,09,13.40
2015,07,13,07,10,13.50
2015,07,13,07,11,13.50
2015,07,13,07,12,13.60
2015,07,13,07,13,13.60
2015,07,13,07,14,13.70
2015,07,13,07,15,13.80
2015,07,13,07,16,13.90
2015,07,13,07,17,14.10
2015,07,13,07,18,14.20
2015,07,13,07,19,14.40
2015,07,13,07,20,14.50
2015,07,13,07,21,14.70
2015,07,13,07,22,14.90
2015,07,13,07,23,15.10
2015,07,13,07,24,15.30
2015,07,13,07,25,15.50
2015,07,13,07,26,15.70
2015,07,13,07,27,15.90
2015,07,13,07,28,16.00
2015,07,13,07,29,16.20
2015,07,13,07,30,16.40
2015,07,13,07,31,16.50
2015,07,13,07,32,16.60
2015,07,13,07,33,16.70
2015,07,13,07,34,16.80
2015,07,13,07,35,16.90
2015,07,13,07,36,17.00
2015,07,13,07,37,17.10
2015,07,13,07,38,17.10
2015,07,13,07,39,17.10
2015,07,13,07,40,17.00
2015,07,13,07,41,16.90
2015,07,13,07,42,16.90
2015,07,13,07,43,16.80
2015,07,13,07,44,16.70
2015,07,13,07,45,16.60
2015,07,13,07,46,16.60
2015,07,13,07,47,16.50
2015,07,13,07,48,16.40
2015,07,13,07,49,16.40
2015,07,13,07,50,16.40
2015,07,13,07,51,16.40
2015,07,13,07,52,16.40
2015,07,13,07,53,16.40
2015,07,13,07,54,16.40
2015,07,13,07,55,16.40
2015,07,13,07,56,16.30
2015,07,13,07,57,16.30
2015,07,13,07,58,16.30
2015,07,13,07,59,16.30
2015,07,13,08,00,16.30
2015,07,13,08,01,16.30
2015,07,13,08,02,16.30
2015,07,13,08,03,16.20
2015,07,13,08,04,16.20
2015,07,13,08,05,16.20
2015,07,13,08,06,16.20
2015,07,13,08,07,16.20
2015,07,13,08,08,16.20
2015,07,13,08,09,16.20
2015,07,13,08,10,16.20
2015,07,13,08,11,16.20
2015,07,13,08,12,16.20
2015,07,13,08,13,16.20
2015,07,13,08,14,16.30
2015,07,13,08,15,16.30
2015,07,13,08,16,16.30
2015,07,13,08,17,16.30
2015,07,13,08,18,16.40
2015,07,13,08,19,16.40
2015,07,13,08,20,16.40
2015,07,13,08,21,16.50
2015,07,13,08,22,16.60
2015,07,13,08,23,16.60
2015,07,13,08,24,16.70
2015,07,13,08,25,16.80
2015,07,13,08,26,16.80
2015,07,13,08,27,16.90
2015,07,13,08,28,16.90
2015,07,13,08,29,17.00
2015,07,13,08,30,17.00
2015,07,13,08,31,17.10
2015,07,13,08,32,17.10
2015,07,13,08,33,17.20
2015,07,13,08,34,17.20
2015,07,13,08,35,17.20
2015,07,13,08,36,17.20
2015,07,13,08,37,17.20
2015,07,13,08,38,17.20
2015,07,13,08,39,17.20
2015,07,13,08,40,17.20
2015,07,13,08,41,17.20
2015,07,13,08,42,17.20
2015,07,13,08,43,17.20
2015,07,13,08,44,17.20
2015,07,13,08,45,17.20
2015,07,13,08,46,17.20
2015,07,13,08,47,17.20
2015,07,13,08,48,17.30
2015,07,13,08,49,17.30
2015,07,13,08,50,17.30
2015,07,13,08,51,17.40
2015,07,13,08,52,17.40
2015,07,13,08,53,17.50
2015,07,13,08,54,17.60
2015,07,13,08,55,17.60
2015,07,13,08,56,17.60
2015,07,13,08,57,17.70
2015,07,13,08,58,17.70
2015,07,13,08,59,17.70
2015,07,13,09,00,17.70
2015,07,13,09,01,17.70
2015,07,13,09,02,17.70
2015,07,13,09,03,17.70
2015,07,13,09,04,17.60
2015,07,13,09,05,17.60
2015,07,13,09,06,17.60
2015,07,13,09,07,17.60
2015,07,13,09,08,17.70
2015,07,13,09,09,17.80
2015,07,13,09,10,17.80
2015,07,13,09,11,17.90
2015,07,13,09,12,17.90
2015,07,13,09,13,17.90
2015,07,13,09,14,17.80
2015,07,13,09,15,17.80
2015,07,13,09,16,17.70
2015,07,13,09,17,17.70
2015,07,13,09,18,17.70
2015,07,13,09,19,17.80
2015,07,13,09,20,17.90
2015,07,13,09,21,17.90
2015,07,13,09,22,17.90
2015,07,13,09,23,17.90
2015,07,13,09,24,17.90
2015,07,13,09,25,17.90
2015,07,13,09,26,18.00
2015,07,13,09,27,18.00
2015,07,13,09,28,18.10
2015,07,13,09,29,18.20
2015,07,13,09,30,18.20
2015,07,13,09,31,18.20
2015,07,13,09,32,18.20
2015,07,13,09,33,18.20
2015,07,13,09,34,18.20
2015,07,13,09,35,18.30
2015,07,13,09,36,18.30
2015,07,13,09,37,18.30
2015,07,13,09,38,18.40
2015,07,13,09,39,18.40
2015,07,13,09,40,18.40
2015,07,13,09,41,18.50
2015,07,13,09,42,18.50
2015,07,13,09,43,18.60
2015,07,13,09,44,18.70
2015,07,13,09,45,18.70
2015,07,13,09,46,18.70
2015,07,13,09,47,18.70
2015,07,13,09,48,18.70
2015,07,13,09,49,18.70
2015,07,13,09,50,18.60
2015,07,13,09,51,18.60
2015,07,13,09,52,18.50
2015,07,13,09,53,18.40
2015,07,13,09,54,18.30
2015,07,13,09,55,18.40
2015,07,13,09,56,18.40
2015,07,13,09,57,18.50
2015,07,13,09,58,18.60
2015,07,13,09,59,18.60
2015,07,13,10,00,18.60
2015,07,13,10,01,18.70
2015,07,13,10,02,18.80
2015,07,13,10,03,18.90
2015,07,13,10,04,18.90
2015,07,13,10,05,18.90
2015,07,13,10,06,18.90
2015,07,13,10,07,18.80
2015,07,13,10,08,18.80
2015,07,13,10,09,18.80
2015,07,13,10,10,18.70
2015,07,13,10,11,18.60
2015,07,13,10,12,18.60
2015,07,13,10,13,18.50
2015,07,13,10,14,18.40
2015,07,13,10,15,18.40
2015,07,13,10,16,18.50
2015,07,13,10,17,18.60
2015,07,13,10,18,18.60
2015,07,13,10,19,18.60
2015,07,13,10,20,18.60
2015,07,13,10,21,18.60
2015,07,13,10,22,18.60
2015,07,13,10,23,18.60
2015,07,13,10,24,18.60
2015,07,13,10,25,18.60
2015,07,13,10,26,18.50
2015,07,13,10,27,18.40
2015,07,13,10,28,18.40
2015,07,13,10,29,18.50
2015,07,13,10,30,18.50
2015,07,13,10,31,18.60
2015,07,13,10,32,18.50
2015,07,13,10,33,18.50
2015,07,13,10,34,18.50
2015,07,13,10,35,18.60
2015,07,13,10,36,18.60
2015,07,13,10,37,18.80
2015,07,13,10,38,19.00
2015,07,13,10,39,19.20
2015,07,13,10,40,19.20
2015,07,13,10,41,19.30
2015,07,13,10,42,19.30
2015,07,13,10,43,19.40
2015,07,13,10,44,19.40
2015,07,13,10,45,19.40
2015,07,13,10,46,19.40
2015,07,13,10,47,19.40
2015,07,13,10,48,19.40
2015,07,13,10,49,19.40
2015,07,13,10,50,19.50
2015,07,13,10,51,19.60
2015,07,13,10,52,19.50
2015,07,13,10,53,19.50
2015,07,13,10,54,19.40
2015,07,13,10,55,19.30
2015,07,13,10,56,19.20
2015,07,13,10,57,19.20
2015,07,13,10,58,19.10
2015,07,13,10,59,19.10
2015,07,13,11,00,19.10
2015,07,13,11,01,19.10
2015,07,13,11,02,19.00
2015,07,13,11,03,19.00
2015,07,13,11,04,19.00
2015,07,13,11,05,19.10
2015,07,13,11,06,19.20
2015,07,13,11,07,19.30
2015,07,13,11,08,19.30
2015,07,13,11,09,19.40
2015,07,13,11,10,19.40
2015,07,13,11,11,19.40
2015,07,13,11,12,19.40
2015,07,13,11,13,19.40
2015,07,13,11,14,19.40
2015,07,13,11,15,19.40
2015,07,13,11,16,19.40
2015,07,13,11,17,19.40
2015,07,13,11,18,19.40
2015,07,13,11,19,19.40
2015,07,13,11,20,19.30
2015,07,13,11,21,19.20
2015,07,13,11,22,19.20
2015,07,13,11,23,19.20
2015,07,13,11,24,19.20
2015,07,13,11,25,19.20
2015,07,13,11,26,19.20
2015,07,13,11,27,19.20
2015,07,13,11,28,19.40
2015,07,13,11,29,19.40
2015,07,13,11,30,19.50
2015,07,13,11,31,19.60
2015,07,13,11,32,19.60
2015,07,13,11,33,19.70
2015,07,13,11,34,19.80
2015,07,13,11,35,19.90
2015,07,13,11,36,20.00
2015,07,13,11,37,20.10
2015,07,13,11,38,20.20
2015,07,13,11,39,20.40
2015,07,13,11,40,20.50
2015,07,13,11,41,20.60
2015,07,13,11,42,20.50
2015,07,13,11,43,20.40
2015,07,13,11,44,20.30
2015,07,13,11,45,20.30
2015,07,13,11,46,20.30
2015,07,13,11,47,20.30
2015,07,13,11,48,20.30
2015,07,13,11,49,20.30
2015,07,13,11,50,20.30
2015,07,13,11,51,20.40
2015,07,13,11,52,20.60
2015,07,13,11,53,20.70
2015,07,13,11,54,20.70
2015,07,13,11,55,20.70
2015,07,13,11,56,20.80
2015,07,13,11,57,20.90
2015,07,13,11,58,21.00
2015,07,13,11,59,21.10
2015,07,13,12,00,21.20
2015,07,13,12,01,21.30
2015,07,13,12,02,21.30
2015,07,13,12,03,21.30
2015,07,13,12,04,21.20
2015,07,13,12,05,21.10
2015,07,13,12,06,21.00
2015,07,13,12,07,20.90
2015,07,13,12,08,20.80
2015,07,13,12,09,20.70
2015,07,13,12,10,20.70
2015,07,13,12,11,20.70
2015,07,13,12,12,20.70
2015,07,13,12,13,20.70
2015,07,13,12,14,20.80
2015,07,13,12,15,20.90
2015,07,13,12,16,20.90
2015,07,13,12,17,21.00
2015,07,13,12,18,21.00
2015,07,13,12,19,21.00
2015,07,13,12,20,21.10
2015,07,13,12,21,21.20
2015,07,13,12,22,21.30
2015,07,13,12,23,21.40
2015,07,13,12,24,21.50
2015,07,13,12,25,21.50
2015,07,13,12,26,21.50
2015,07,13,12,27,21.50
2015,07,13,12,28,21.60
2015,07,13,12,29,21.60
2015,07,13,12,30,21.70
2015,07,13,12,31,21.80
2015,07,13,12,32,21.70
2015,07,13,12,33,21.60
2015,07,13,12,34,21.40
2015,07,13,12,35,21.30
2015,07,13,12,36,21.10
2015,07,13,12,37,20.90
2015,07,13,12,38,20.70
2015,07,13,12,39,20.50
2015,07,13,12,40,20.40
2015,07,13,12,41,20.30
2015,07,13,12,42,20.30
2015,07,13,12,43,20.30
2015,07,13,12,44,20.30
2015,07,13,12,45,20.40
2015,07,13,12,46,20.50
2015,07,13,12,47,20.60
2015,07,13,12,48,20.60
2015,07,13,12,49,20.50
2015,07,13,12,50,20.40
2015,07,13,12,51,20.30
2015,07,13,12,52,20.10
2015,07,13,12,53,20.10
2015,07,13,12,54,20.00
2015,07,13,12,55,20.00
2015,07,13,12,56,20.10
2015,07,13,12,57,20.20
2015,07,13,12,58,20.20
2015,07,13,12,59,20.30
2015,07,13,13,00,20.30
2015,07,13,13,01,20.40
2015,07,13,13,02,20.50
2015,07,13,13,03,20.50
2015,07,13,13,04,20.60
2015,07,13,13,05,20.60
2015,07,13,13,06,20.60
2015,07,13,13,07,20.60
2015,07,13,13,08,20.60
2015,07,13,13,09,20.60
2015,07,13,13,10,20.70
2015,07,13,13,11,20.70
2015,07,13,13,12,20.80
2015,07,13,13,13,20.90
2015,07,13,13,14,20.90
2015,07,13,13,15,20.90
2015,07,13,13,16,20.90
2015,07,13,13,17,20.80
2015,07,13,13,18,20.80
2015,07,13,13,19,20.80
2015,07,13,13,20,20.70
2015,07,13,13,21,20.80
2015,07,13,13,22,20.80
2015,07,13,13,23,20.90
2015,07,13,13,24,20.90
2015,07,13,13,25,20.90
2015,07,13,13,26,20.90
2015,07,13,13,27,21.00
2015,07,13,13,28,21.10
2015,07,13,13,29,21.20
2015,07,13,13,30,21.20
2015,07,13,13,31,21.10
2015,07,13,13,32,21.00
2015,07,13,13,33,20.90
2015,07,13,13,34,20.80
2015,07,13,13,35,20.80
2015,07,13,13,36,20.80
2015,07,13,13,37,20.80
2015,07,13,13,38,20.90
2015,07,13,13,39,21.00
2015,07,13,13,40,21.00
2015,07,13,13,41,21.00
2015,07,13,13,42,21.00
2015,07,13,13,43,21.00
2015,07,13,13,44,21.10
2015,07,13,13,45,21.20
2015,07,13,13,46,21.30
2015,07,13,13,47,21.40
2015,07,13,13,48,21.40
2015,07,13,13,49,21.30
2015,07,13,13,50,21.30
2015,07,13,13,51,21.30
2015,07,13,13,52,21.20
2015,07,13,13,53,21.10
2015,07,13,13,54,21.20
2015,07,13,13,55,21.30
2015,07,13,13,56,21.20
2015,07,13,13,57,21.30
2015,07,13,13,58,21.40
2015,07,13,13,59,21.40
2015,07,13,14,00,21.50
2015,07,13,14,01,21.50
2015,07,13,14,02,21.40
2015,07,13,14,03,21.40
2015,07,13,14,04,21.40
2015,07,13,14,05,21.50
2015,07,13,14,06,21.50
2015,07,13,14,07,21.50
2015,07,13,14,08,21.50
2015,07,13,14,09,21.50
2015,07,13,14,10,21.60
2015,07,13,14,11,21.60
2015,07,13,14,12,21.50
2015,07,13,14,13,21.50
2015,07,13,14,14,21.50
2015,07,13,14,15,21.40
2015,07,13,14,16,21.40
2015,07,13,14,17,21.40
2015,07,13,14,18,21.40
2015,07,13,14,19,21.40
2015,07,13,14,20,21.30
2015,07,13,14,21,21.40
2015,07,13,14,22,21.40
2015,07,13,14,23,21.50
2015,07,13,14,24,21.60
2015,07,13,14,25,21.70
2015,07,13,14,26,21.60
2015,07,13,14,27,21.70
2015,07,13,14,28,21.70
2015,07,13,14,29,21.70
2015,07,13,14,30,21.70
2015,07,13,14,31,21.70
2015,07,13,14,32,21.80
2015,07,13,14,33,21.80
2015,07,13,14,34,21.80
2015,07,13,14,35,21.80
2015,07,13,14,36,21.80
2015,07,13,14,37,21.80
2015,07,13,14,38,21.80
2015,07,13,14,39,21.80
2015,07,13,14,40,21.80
2015,07,13,14,41,21.90
2015,07,13,14,42,21.90
2015,07,13,14,43,22.00
2015,07,13,14,44,22.10
2015,07,13,14,45,22.30
2015,07,13,14,46,22.30
2015,07,13,14,47,22.30
2015,07,13,14,48,22.20
2015,07,13,14,49,22.10
2015,07,13,14,50,22.10
2015,07,13,14,51,22.10
2015,07,13,14,52,22.00
2015,07,13,14,53,21.90
2015,07,13,14,54,21.80
2015,07,13,14,55,21.80
2015,07,13,14,56,21.80
2015,07,13,14,57,21.80
2015,07,13,14,58,21.70
2015,07,13,14,59,21.70
2015,07,13,15,00,21.70
2015,07,13,15,01,21.80
2015,07,13,15,02,21.90
2015,07,13,15,03,22.10
2015,07,13,15,04,22.30
2015,07,13,15,05,22.40
2015,07,13,15,06,22.50
2015,07,13,15,07,22.70
2015,07,13,15,08,22.70
2015,07,13,15,09,22.70
2015,07,13,15,10,22.60
2015,07,13,15,11,22.50
2015,07,13,15,12,22.50
2015,07,13,15,13,22.50
2015,07,13,15,14,22.50
2015,07,13,15,15,22.60
2015,07,13,15,16,22.70
2015,07,13,15,17,22.70
2015,07,13,15,18,22.80
2015,07,13,15,19,22.70
2015,07,13,15,20,22.60
2015,07,13,15,21,22.60
2015,07,13,15,22,22.70
2015,07,13,15,23,22.70
2015,07,13,15,24,22.80
2015,07,13,15,25,22.70
2015,07,13,15,26,22.70
2015,07,13,15,27,22.60
2015,07,13,15,28,22.60
2015,07,13,15,29,22.70
2015,07,13,15,30,22.70
2015,07,13,15,31,22.60
2015,07,13,15,32,22.50
2015,07,13,15,33,22.30
2015,07,13,15,34,22.10
2015,07,13,15,35,22.10
2015,07,13,15,36,22.00
2015,07,13,15,37,22.00
2015,07,13,15,38,22.00
2015,07,13,15,39,22.00
2015,07,13,15,40,21.90
2015,07,13,15,41,21.90
2015,07,13,15,42,21.80
2015,07,13,15,43,21.80
2015,07,13,15,44,21.80
2015,07,13,15,45,21.80
2015,07,13,15,46,21.80
2015,07,13,15,47,21.70
2015,07,13,15,48,21.70
2015,07,13,15,49,21.80
2015,07,13,15,50,22.00
2015,07,13,15,51,22.10
2015,07,13,15,52,22.00
2015,07,13,15,53,21.90
2015,07,13,15,54,21.80
2015,07,13,15,55,21.70
2015,07,13,15,56,21.60
2015,07,13,15,57,21.60
2015,07,13,15,58,21.50
2015,07,13,15,59,21.60
2015,07,13,16,00,21.60
2015,07,13,16,01,21.60
2015,07,13,16,02,21.50
2015,07,13,16,03,21.50
2015,07,13,16,04,21.50
2015,07,13,16,05,21.60
2015,07,13,16,06,21.70
2015,07,13,16,07,21.80
2015,07,13,16,08,21.90
2015,07,13,16,09,21.90
2015,07,13,16,10,21.90
2015,07,13,16,11,21.80
2015,07,13,16,12,21.90
2015,07,13,16,13,22.00
2015,07,13,16,14,22.10
2015,07,13,16,15,22.30
2015,07,13,16,16,22.40
2015,07,13,16,17,22.30
2015,07,13,16,18,22.30
2015,07,13,16,19,22.30
2015,07,13,16,20,22.30
2015,07,13,16,21,22.20
2015,07,13,16,22,22.20
2015,07,13,16,23,22.20
2015,07,13,16,24,22.20
2015,07,13,16,25,22.20
2015,07,13,16,26,22.10
2015,07,13,16,27,22.10
2015,07,13,16,28,22.10
2015,07,13,16,29,22.20
2015,07,13,16,30,22.20
2015,07,13,16,31,22.30
2015,07,13,16,32,22.30
2015,07,13,16,33,22.30
2015,07,13,16,34,22.30
2015,07,13,16,35,22.30
2015,07,13,16,36,22.20
2015,07,13,16,37,22.10
2015,07,13,16,38,21.90
2015,07,13,16,39,21.70
2015,07,13,16,40,21.60
2015,07,13,16,41,21.60
2015,07,13,16,42,21.60
2015,07,13,16,43,21.70
2015,07,13,16,44,21.70
2015,07,13,16,45,21.70
2015,07,13,16,46,21.70
2015,07,13,16,47,21.60
2015,07,13,16,48,21.60
2015,07,13,16,49,21.60
2015,07,13,16,50,21.60
2015,07,13,16,51,21.50
2015,07,13,16,52,21.40
2015,07,13,16,53,21.40
2015,07,13,16,54,21.40
2015,07,13,16,55,21.40
2015,07,13,16,56,21.40
2015,07,13,16,57,21.40
2015,07,13,16,58,21.50
2015,07,13,16,59,21.50
2015,07,13,17,00,21.60
2015,07,13,17,01,21.60
2015,07,13,17,02,21.70
2015,07,13,17,03,21.70
2015,07,13,17,04,21.70
2015,07,13,17,05,21.70
2015,07,13,17,06,21.70
2015,07,13,17,07,21.70
2015,07,13,17,08,21.70
2015,07,13,17,09,21.70
2015,07,13,17,10,21.70
2015,07,13,17,11,21.70
2015,07,13,17,12,21.70
2015,07,13,17,13,21.70
2015,07,13,17,14,21.70
2015,07,13,17,15,21.70
2015,07,13,17,16,21.70
2015,07,13,17,17,21.70
2015,07,13,17,18,21.70
2015,07,13,17,19,21.70
2015,07,13,17,20,21.70
2015,07,13,17,21,21.70
2015,07,13,17,22,21.70
2015,07,13,17,23,21.70